OKEAN-0
1 25860U 99039A 08017.00627420 .00000049 00000-0 14682-4 0 2641
2 25860 097.7402 014.3727 0001857 063.3016 296.8373 14.73496993456981
NOAA-16
1 26536U 00055A 08017.47468720 -.00000240 00000-0 -10475-3 0 7655
2 26536 099.1437 003.4292 0009766 293.7160 066.2976 14.12464828377354
NOAA-17
1 27453U 02032A 08017.34689710 .00000129 00000-0 74909-4 0 7647
2 27453 098.5551 086.2428 0011862 186.2044 173.8993 14.23942153289192
NOAA-18
1 28654U 05018A 08017.31909626 .00000468 00000-0 28378-3 0 2768
2 28654 098.8538 320.2429 0014776 026.2361 333.9559 14.11130857137059
HUBBLE
1 20580U 90037B 08017.81126465 .00000347 00000-0 13998-4 0 509
2 20580 028.4683 230.5038 0003895 217.1770 142.8542 15.00327835772229
UARS
1 21701U 91063B 08017.70933868 .00006017 00000-0 98721-4 0 2684
2 21701 056.9744 101.6407 0082293 245.0752 114.1735 15.50283515898996
PO-34
1 25520U 98064B 08016.64991711 .00000471 00000-0 13463-4 0 9100
2 25520 028.4596 119.9491 0005037 065.1744 294.9376 15.17116983509978
ISS
1 25544U 98067A 08017.94000000 .00024699 00000-0 15124-3 0 7353
2 25544 051.6386 076.3166 0005494 294.4977 055.3091 15.77157562524655
OO-38
1 26063U 00004C 08016.75309043 -.00000033 00000-0 89864-5 0 1121
2 26063 100.2130 063.7076 0036551 279.0439 080.6601 14.35825229417698
UWE-1
1 28892U 05043C 08016.96663781 .00000228 00000-0 57573-4 0 9502
2 28892 098.1123 274.0985 0017763 161.5822 198.6054 14.59584264118392
CO-58
1 28895U 05043F 08016.93886864 .00000164 00000-0 43949-4 0 9243
2 28895 098.1166 274.3672 0018133 161.4985 198.6892 14.59626101118273
NCUBE2
1 28897U 05043H 08017.26373056 .00000129 00000-0 36535-4 0 4548
2 28897 098.1136 274.6237 0017385 162.7689 197.4084 14.59793487110606
FCAL
1 29667U 06055J 08017.53173000 .00038967 12004-4 83919-4 0 6761
2 29667 051.6323 042.6567 0010273 100.6956 259.5214 15.99197591 62161
FALCON
1 30776U 07006E 08017.38183232 .00000453 00000-0 36176-4 0 2275
2 30776 035.4347 354.0660 0000460 180.8220 179.2495 15.02855322 47298
MAST
1 31126U 07012K 08016.68225489 .00000065 00000-0 25271-4 0 2324
2 31126 098.0607 087.0763 0095780 084.6680 276.5436 14.53393131 39869
CAPE1
1 31130U 07012P 08017.71980727 -.00000129 00000-0 -19162-4 0 2131
2 31130 098.0617 087.4337 0104186 083.4934 277.8110 14.51922048 39749
